Weather History for KBFF - July, 2013

Change the Weather History Date:

Thursday, July 4, 2013

  Actual Average Record
Temperature  
Mean Temperature 73 °F 73 °F  
Max Temperature 92 °F 89 °F 107 °F (1936)
Min Temperature 53 °F 57 °F 38 °F (1898)
Degree Days  
Heating Degree Days 0 0  
Month to date heating degree days 0 1  
Since 1 June heating degree days 21 61  
Since 1 July heating degree days 0 1  
Cooling Degree Days 8 8  
Month to date cooling degree days 29 32  
Year to date cooling degree days 278 181  
Since 1 June cooling degree days 224 158  
Growing Degree Days 23 (Base 50)    
Moisture  
Dew Point 42 °F    
Average Humidity 55    
Maximum Humidity 62    
Minimum Humidity 48    
Precipitation  
Precipitation T in 0.06 in 2.11 in (1912)
Month to date precipitation 0.08 0.25  
Year to date precipitation 6.26 9.42  
Snow  
Snow 0.00 in 0.00 in - ()
Month to date snowfall 0.0 0.0  
Since 1 July snowfall 0.0 0.0  
Snow Depth 0.00 in    
Sea Level Pressure  
Sea Level Pressure 29.77 in    
Wind  
Wind Speed 8 mph (NE)    
Max Wind Speed 28 mph    
Max Gust Speed 36 mph    
Visibility 10 miles    
Events      
T = Trace of Precipitation, MM = Missing Value Source: NWS Daily Summary

Daily Weather History Graph

Daily Weather History Graph

Search for Another Location

Airport or City:

Trip Planner

Search our weather history database for the weather conditions in past years. The results will help you decide how hot, cold, wet, or windy it might be!

Date:

Astronomy

Jul. 04, 2013 Rise Set
Actual Time 5:24 AM MDT 8:32 PM MDT
Civil Twilight 4:50 AM MDT 9:06 PM MDT
Nautical Twilight 4:07 AM MDT 9:50 PM MDT
Astronomical Twilight 3:15 AM MDT 10:41 PM MDT
Moon 2:44 AM MDT (7/4) 5:38 PM MDT (7/4)
Length of Visible Light 16h 15m
Length of Day
15h 07m
Waning Crescent, 11% of the Moon is Illuminated
Jul 4
Waning Crescent
Jul 8
New
Jul 15
First Quarter
Jul 22
Full
Jul 29
Last Quarter

Hourly Weather History & Observations

Time (MDT) Temp. Dew Point Humidity Pressure Visibility Wind Dir Wind Speed Gust Speed Precip Events Conditions
12:53 AM 64.9 °F 44.1 °F 47% 29.77 in 10.0 mi East 9.2 mph - N/A   Clear
1:53 AM 62.1 °F 46.0 °F 56% 29.76 in 10.0 mi NE 6.9 mph - N/A   Clear
2:53 AM 60.1 °F 45.0 °F 57% 29.76 in 10.0 mi NE 3.5 mph - N/A   Clear
3:53 AM 59.0 °F 46.0 °F 62% 29.76 in 10.0 mi Calm Calm - N/A   Clear
4:53 AM 53.1 °F - N/A% 29.78 in 10.0 mi NW 5.8 mph - N/A   Clear
5:53 AM 55.0 °F - N/A% 29.79 in 10.0 mi NW 4.6 mph - N/A   Clear
6:53 AM 60.1 °F - N/A% 29.80 in 10.0 mi WNW 6.9 mph - N/A   Clear
7:53 AM 66.9 °F - N/A% 29.81 in 10.0 mi WNW 8.1 mph - N/A   Clear
8:53 AM 75.0 °F - N/A% 29.80 in 10.0 mi West 6.9 mph - N/A   Clear
9:53 AM 81.0 °F - N/A% 29.79 in 10.0 mi West 5.8 mph - N/A   Clear
10:53 AM 84.9 °F - N/A% 29.78 in 10.0 mi Variable 3.5 mph - N/A   Clear
11:53 AM 90.0 °F - N/A% 29.76 in 10.0 mi Calm Calm - N/A   Clear
12:53 PM 91.9 °F - N/A% 29.76 in 10.0 mi NNE 15.0 mph 18.4 mph N/A   Clear
1:53 PM 89.1 °F - N/A% 29.78 in 10.0 mi NE 15.0 mph 25.3 mph N/A   Clear
2:53 PM 87.1 °F - N/A% 29.79 in 10.0 mi ENE 20.7 mph 26.5 mph N/A   Clear
3:53 PM 91.9 °F - N/A% 29.76 in 10.0 mi NE 10.4 mph - N/A   Clear
4:53 PM 91.0 °F - N/A% 29.78 in 10.0 mi ENE 12.7 mph - N/A   Clear
5:53 PM 90.0 °F - N/A% 29.76 in 10.0 mi East 15.0 mph - N/A   Clear
6:53 PM 84.0 °F - N/A% 29.77 in 10.0 mi East 11.5 mph - N/A   Clear
7:53 PM 79.0 °F - N/A% 29.78 in 10.0 mi ENE 8.1 mph - N/A   Clear
8:53 PM 75.9 °F - N/A% 29.78 in 10.0 mi NNE 4.6 mph - N/A   Partly Cloudy
9:53 PM 73.0 °F - N/A% 29.77 in 10.0 mi East 12.7 mph - N/A   Partly Cloudy
10:53 PM 72.0 °F - N/A% 29.77 in 10.0 mi ESE 5.8 mph - N/A   Clear
11:53 PM 70.0 °F 51.1 °F 51% 29.75 in 10.0 mi ESE 6.9 mph - N/A   Mostly Cloudy